• în România
  • Lista ţărilor
  • Pe 7 zile
  • Temperatura apei
  • Hartă satelitară
  • Meteo pe hartă
  • Widget-uri
  • user-avatar
    Intrare

    Meteo pe oră la Caracas

    Astăzi, 17 August, Vineri

    Timp Temperatura Precipitaţii Vânt Presiune Umiditate
    00:00 +17°C° 0 mm 2 m/s 651 mmHg 94%
    01:00 +17°C° 0 mm 2 m/s 651 mmHg 94%
    02:00 +17°C° 0 mm 2 m/s 651 mmHg 94%
    03:00 +16°C° 0 mm 2 m/s 651 mmHg 94%
    04:00 +16°C° 0 mm 2 m/s 651 mmHg 93%
    05:00 +16°C° 0 mm 2 m/s 650 mmHg 93%
    06:00 +17°C° 0 mm 2 m/s 651 mmHg 89%
    07:00 +18°C° 0 mm 2 m/s 651 mmHg 86%
    08:00 +19°C° 0 mm 2 m/s 652 mmHg 82%
    09:00 +21°C° 0 mm 2 m/s 652 mmHg 74%
    10:00 +24°C° 0 mm 2 m/s 653 mmHg 66%
    11:00 +26°C° 0 mm 2 m/s 654 mmHg 57%
    12:00 +26°C° 0,1 mm 2 m/s 653 mmHg 58%
    13:00 +26°C° 0,1 mm 3 m/s 652 mmHg 59%
    14:00 +27°C° 0,1 mm 3 m/s 652 mmHg 59%
    15:00 +26°C° 0,8 mm 3 m/s 651 mmHg 66%
    16:00 +24°C° 0,8 mm 3 m/s 651 mmHg 73%
    17:00 +22°C° 0,8 mm 3 m/s 650 mmHg 79%
    18:00 +21°C° 0,8 mm 3 m/s 650 mmHg 84%
    19:00 +20°C° 0,8 mm 3 m/s 650 mmHg 88%
    20:00 +18°C° 0,8 mm 2 m/s 650 mmHg 92%
    21:00 +18°C° 0,4 mm 3 m/s 651 mmHg 93%
    22:00 +18°C° 0,4 mm 3 m/s 651 mmHg 94%
    23:00 +18°C° 0,4 mm 3 m/s 651 mmHg 95%

    Mâine, 18 August, Sâmbătă

    Timp Temperatura Precipitaţii Vânt Presiune Umiditate
    00:00 +17°C° 0 mm 2 m/s 651 mmHg 94%
    01:00 +17°C° 0 mm 2 m/s 650 mmHg 94%
    02:00 +17°C° 0 mm 2 m/s 650 mmHg 94%
    03:00 +17°C° 0 mm 2 m/s 650 mmHg 93%
    04:00 +17°C° 0 mm 2 m/s 650 mmHg 93%
    05:00 +16°C° 0 mm 2 m/s 649 mmHg 92%
    06:00 +17°C° 0,2 mm 2 m/s 650 mmHg 90%
    07:00 +18°C° 0,2 mm 2 m/s 651 mmHg 89%
    08:00 +19°C° 0,2 mm 2 m/s 651 mmHg 87%
    09:00 +20°C° 0,2 mm 2 m/s 652 mmHg 80%
    10:00 +23°C° 0,2 mm 2 m/s 652 mmHg 74%
    11:00 +25°C° 0,2 mm 2 m/s 653 mmHg 67%
    12:00 +25°C° 1,2 mm 2 m/s 652 mmHg 73%
    13:00 +24°C° 1,2 mm 3 m/s 651 mmHg 79%
    14:00 +22°C° 1,2 mm 3 m/s 650 mmHg 85%
    15:00 +22°C° 1,9 mm 3 m/s 650 mmHg 86%
    16:00 +22°C° 1,9 mm 3 m/s 649 mmHg 86%
    17:00 +22°C° 1,9 mm 3 m/s 649 mmHg 87%
    18:00 +21°C° 1 mm 2 m/s 649 mmHg 89%
    19:00 +19°C° 1 mm 2 m/s 649 mmHg 91%
    20:00 +18°C° 1 mm 2 m/s 650 mmHg 93%
    21:00 +18°C° 0,5 mm 2 m/s 650 mmHg 94%
    22:00 +18°C° 0,5 mm 2 m/s 650 mmHg 94%
    23:00 +18°C° 0,5 mm 2 m/s 651 mmHg 95%

    Poimâine, 19 August, Duminică

    Timp Temperatura Precipitaţii Vânt Presiune Umiditate
    00:00 +18°C° 0,1 mm 2 m/s 650 mmHg 94%
    01:00 +17°C° 0,1 mm 2 m/s 649 mmHg 94%
    02:00 +17°C° 0,1 mm 2 m/s 649 mmHg 93%
    03:00 +17°C° 0,3 mm 2 m/s 649 mmHg 93%
    04:00 +17°C° 0,3 mm 2 m/s 649 mmHg 92%
    05:00 +16°C° 0,3 mm 2 m/s 649 mmHg 92%
    06:00 +17°C° 0,4 mm 2 m/s 649 mmHg 90%
    07:00 +18°C° 0,4 mm 2 m/s 650 mmHg 88%
    08:00 +18°C° 0,4 mm 2 m/s 651 mmHg 86%
    09:00 +20°C° 0,1 mm 2 m/s 651 mmHg 79%
    10:00 +23°C° 0,1 mm 2 m/s 652 mmHg 72%
    11:00 +25°C° 0,1 mm 2 m/s 652 mmHg 64%
    12:00 +25°C° 0,9 mm 2 m/s 652 mmHg 70%
    13:00 +25°C° 0,9 mm 2 m/s 651 mmHg 75%
    14:00 +24°C° 0,9 mm 2 m/s 650 mmHg 81%
    15:00 +24°C° 1,1 mm 2 m/s 650 mmHg 81%
    16:00 +24°C° 1,1 mm 2 m/s 650 mmHg 81%
    17:00 +23°C° 1,1 mm 2 m/s 649 mmHg 81%
    18:00 +21°C° 0,3 mm 2 m/s 649 mmHg 85%
    19:00 +20°C° 0,3 mm 2 m/s 649 mmHg 88%
    20:00 +19°C° 0,3 mm 2 m/s 650 mmHg 92%
    21:00 +18°C° 0 mm 3 m/s 650 mmHg 92%
    22:00 +18°C° 0 mm 3 m/s 650 mmHg 92%
    23:00 +18°C° 0 mm 3 m/s 651 mmHg 92%

    20 August, Luni

    Timp Temperatura Precipitaţii Vânt Presiune Umiditate
    00:00 +17°C° 0 mm 3 m/s 650 mmHg 92%
    01:00 +17°C° 0 mm 3 m/s 650 mmHg 92%
    02:00 +17°C° 0 mm 2 m/s 649 mmHg 92%
    03:00 +17°C° 0,2 mm 2 m/s 649 mmHg 91%
    04:00 +17°C° 0,2 mm 2 m/s 650 mmHg 91%
    05:00 +17°C° 0,2 mm 2 m/s 650 mmHg 91%
    06:00 +17°C° 0,1 mm 2 m/s 650 mmHg 89%
    07:00 +18°C° 0,1 mm 2 m/s 651 mmHg 87%
    08:00 +19°C° 0,1 mm 3 m/s 652 mmHg 85%
    09:00 +21°C° 0 mm 3 m/s 652 mmHg 76%
    10:00 +24°C° 0 mm 3 m/s 653 mmHg 66%
    11:00 +26°C° 0 mm 3 m/s 653 mmHg 56%
    12:00 +26°C° 0 mm 3 m/s 653 mmHg 55%
    13:00 +27°C° 0 mm 3 m/s 652 mmHg 54%
    14:00 +27°C° 0 mm 3 m/s 651 mmHg 53%
    15:00 +26°C° 0,1 mm 3 m/s 651 mmHg 58%
    16:00 +25°C° 0,1 mm 3 m/s 650 mmHg 64%
    17:00 +24°C° 0,1 mm 3 m/s 650 mmHg 69%
    18:00 +22°C° 0,2 mm 3 m/s 650 mmHg 76%
    19:00 +20°C° 0,2 mm 3 m/s 650 mmHg 84%
    20:00 +18°C° 0,2 mm 3 m/s 650 mmHg 91%
    21:00 +18°C° 0,1 mm 3 m/s 651 mmHg 92%
    22:00 +18°C° 0,1 mm 3 m/s 651 mmHg 93%
    23:00 +18°C° 0,1 mm 3 m/s 651 mmHg 94%

    21 August, Marţi

    Timp Temperatura Precipitaţii Vânt Presiune Umiditate
    00:00 +18°C° 0 mm 3 m/s 651 mmHg 94%
    01:00 +17°C° 0 mm 2 m/s 650 mmHg 94%
    02:00 +17°C° 0 mm 2 m/s 650 mmHg 94%
    03:00 +17°C° 0 mm 2 m/s 650 mmHg 94%
    04:00 +17°C° 0 mm 2 m/s 650 mmHg 94%
    05:00 +17°C° 0 mm 2 m/s 650 mmHg 94%
    06:00 +18°C° 0,1 mm 2 m/s 650 mmHg 92%
    07:00 +19°C° 0,1 mm 2 m/s 651 mmHg 90%
    08:00 +19°C° 0,1 mm 2 m/s 652 mmHg 88%
    09:00 +21°C° 0,1 mm 2 m/s 652 mmHg 79%
    10:00 +24°C° 0,1 mm 3 m/s 652 mmHg 71%
    11:00 +26°C° 0,1 mm 3 m/s 653 mmHg 63%
    12:00 +25°C° 2,1 mm 3 m/s 652 mmHg 69%
    13:00 +25°C° 2,1 mm 3 m/s 651 mmHg 74%
    14:00 +25°C° 2,1 mm 3 m/s 651 mmHg 79%
    15:00 +24°C° 2,8 mm 3 m/s 650 mmHg 82%
    16:00 +22°C° 2,8 mm 3 m/s 650 mmHg 84%
    17:00 +21°C° 2,8 mm 3 m/s 649 mmHg 87%
    18:00 +20°C° 1,8 mm 3 m/s 650 mmHg 89%
    19:00 +19°C° 1,8 mm 3 m/s 650 mmHg 91%
    20:00 +19°C° 1,8 mm 3 m/s 650 mmHg 93%
    21:00 +18°C° 0,7 mm 3 m/s 650 mmHg 94%
    22:00 +18°C° 0,7 mm 3 m/s 650 mmHg 94%
    23:00 +18°C° 0,7 mm 3 m/s 651 mmHg 95%

    22 August, Miercuri

    Timp Temperatura Precipitaţii Vânt Presiune Umiditate
    00:00 +17°C° 0,6 mm 3 m/s 650 mmHg 95%
    01:00 +17°C° 0,6 mm 3 m/s 650 mmHg 94%
    02:00 +17°C° 0,6 mm 3 m/s 649 mmHg 94%
    03:00 +17°C° 0,8 mm 3 m/s 649 mmHg 94%
    04:00 +17°C° 0,8 mm 3 m/s 650 mmHg 94%
    05:00 +17°C° 0,8 mm 3 m/s 650 mmHg 93%
    06:00 +17°C° 0,2 mm 3 m/s 650 mmHg 92%
    07:00 +18°C° 0,2 mm 3 m/s 651 mmHg 90%
    08:00 +19°C° 0,2 mm 3 m/s 651 mmHg 89%
    09:00 +20°C° 0,1 mm 3 m/s 652 mmHg 83%
    10:00 +21°C° 0,1 mm 3 m/s 652 mmHg 78%
    11:00 +24°C° 0,1 mm 3 m/s 652 mmHg 72%
    12:00 +24°C° 0,6 mm 3 m/s 652 mmHg 74%
    13:00 +25°C° 0,6 mm 3 m/s 651 mmHg 75%
    14:00 +25°C° 0,6 mm 3 m/s 651 mmHg 76%
    15:00 +24°C° 1,3 mm 3 m/s 650 mmHg 78%
    16:00 +22°C° 1,3 mm 3 m/s 650 mmHg 80%
    17:00 +22°C° 1,3 mm 3 m/s 649 mmHg 82%
    18:00 +21°C° 0,4 mm 3 m/s 649 mmHg 86%
    19:00 +20°C° 0,4 mm 3 m/s 650 mmHg 90%
    20:00 +18°C° 0,4 mm 3 m/s 650 mmHg 93%
    21:00 +18°C° 0,4 mm 3 m/s 650 mmHg 94%
    22:00 +18°C° 0,4 mm 3 m/s 650 mmHg 95%
    23:00 +18°C° 0,4 mm 3 m/s 651 mmHg 95%
    Arată mai mult